[Date Prev][Date Next][Thread Prev][Thread Next] - [Date Index][Thread Index][Author Index]
2 Line ISS Keps 1-24
- Subject: [sarex] 2 Line ISS Keps 1-24
- From: "Dave Larsen PhD" <doc@xxxxxxxxxxx>
- Date: Sat, 24 Jan 2004 03:53:59 -0800
ISS
1 25544U 98067A 04024.41493668 .00028985 00000-0 27825-3 0 632
2 25544 51.6309 342.5925 0008189 82.4575 59.4178 15.66328703295600
----
Via the sarex mailing list at AMSAT.ORG courtesy of AMSAT-NA.
To unsubscribe, send "unsubscribe sarex" to Majordomo@amsat.org
AMSAT Home